Погода в Верхнедвинске

Погода в Верхнедвинске : погода сейчас, прогноз погоды и архив. Всё, что Вы хотите узнать о погоде в Верхнедвинске!

Хотите узнать прогноз погоды в Верхнедвинске? Тогда Вам сюда: Погода в Верхнедвинске

Поиск расширенной информации на нашем сайте:

Другие новости

Новости СМИ2

Главная страница сайта

Новости сайта

03.07.2017

Напоминаем, что на нашем специализированном сайте Метеоцентр.Азия вы можете получить высокодетализированные автоматические прогнозы погоды по пунктам России, СНГ и мира в авиационном формате (включающие направление и скорость ветра, видимость, явления погоды, количество и форму облачности, нижнюю и верхнюю границу облачности).


Погода в Верхнедвинске - сегодня

Время (UTC), дата Ветер
(°,м/с) 
Видим.   Явления Облачность Т
(°С)
Тd
(°С)
f(%) Тe
(°С)
Pmin
(гПа)
dP
(гПа)
Po
(мм)
O2
(г/м3)
Тmin Tmax R s Состояние
почвы
18 17.10.17 220 (ЮЗ) 10 км  в посл. час ливневой дождь  9/9 300 м кучево-дожд. 
[Cb cap]
+12.1 +10.4 89 +14  1013.8  -2.1  748  287    +13.8  0.4     
21 17.10.17 220 (ЮЗ) 10 км    9/9 600 м 
[Sc]
+12.6 +11.1 91 +15  1011.8  -1.9  747  286           
00 18.10.17 250 (З) 10 км    8/0 средняя, верхняя 
[Ac trans|Ci fib]
+13.4 +11.5 88 +16  1010.6  -1.2  746  284           
03 18.10.17 250 (З) 5{10}  12000 м    4/0 средняя 
[Ac trans]
+12.2 +8.8 80 +11  1009.7  -0.9  745  286           
06 18.10.17 250 (З) 12000 м    10/0 средняя 
[Ac As]
+11.3 +7.6 78 +11  1009.3  -0.5  745  287  +11.1         
15 18.10.17 260 (З) 14000 м    9/6 600 м средняя 
[Sc|Ac trans]
+12.4 +7.3 71 +12  1010.4  0.6  746  286      0.0     
18 18.10.17 310 (СЗ) 8000 м  слаб. ливневой дождь  9/9 600 м кучево-дожд. 
[Cb cap]
+10.7 +9 89 +10  1012  1.5  747  288    +13  0.9     
00 19.10.17 270 (З) 10 км  {ливн. осадки}  ясно 
+4.2 +3.5 95 +4  1016.1  1.5  750  297           
03 19.10.17 260 (З) 0300 м  туман  ясно 
+2.8 +2.8 100 +4  1017.1  751  299      0.3     
06 19.10.17 260 (З) 0200 м  туман  ?/?  
+3.1 +3.1 100 +4  1018.5  1.4  752  299  +2.6    0.3     
09 19.10.17 270 (З) 12000 м  в посл. час туман  8/0 средняя 
[Ac trans]
+6.9 +6.2 95 +7  1019.7  1.3  753  295           
15 19.10.17 310 (СЗ) 11000 м    3/0 средняя 
[Ac trans]
+9 +4.5 73 +10  1020  0.2  753  293           
18 19.10.17 260 (З) 10 км    ясно 
+4.5 +3.5 93 +5  1021.1  0.9  754  298    +11.2       
21 19.10.17 230 (ЮЗ) 10 км    9/0 средняя 
[Ac trans]
+4.6 +3.9 95 +5  1021.9  0.8  754  298           
03 20.10.17 тихо ()   0200 м  туман  ясно 
+0.9 +0.9 100 +1  1023  0.4  755  303           
06 20.10.17 тихо ()   0200 м  туман  3/0 верхняя 
[Ci fib]
+0.2 +0.2 100 1024  0.8  755  304  -0.2         
09 20.10.17 310 (СЗ) 8000 м  в посл. час туман  9/6 600 м средняя 
[Sc|Ac trans]
+5.7 +5.2 97 +7  1024.4  0.7  756  298           
15 20.10.17 030 (СВ) 10 км    9/3 600 м средняя 
[Sc|Ac trans]
+7.1 +2.3 71 +8  1023.2  -0.3  755  296           
18 20.10.17 070 (В) 10 км    9/0 средняя 
[Ac trans]
+5.5 +3.3 86 +6  1023.5  0.2  755  298    +9.8       
21 20.10.17 050 (СВ) 10 км    4/0 средняя, верхняя 
[Ac trans|Ci fib]
+2 +1.5 96 +3  1023.7  755  302           
03 21.10.17 040 (СВ) 7000 м  дымка  1/0 верхняя 
[Ci fib]
-0.8 -1.4 96 1023.1  -0.4  755  305           
06 21.10.17 050 (СВ) 9000 м  дымка  1/0 средняя 
[Ac trans]
+0.4 -0.7 92 1022.6  -0.4  754  304  -0.9         
09 21.10.17 060 (СВ) 15000 м    1/0 средняя 
[Ac trans]
+5.6 +0.7 71 +5  1022.1  -0.2  754  298           
12 21.10.17 070 (В) 18000 м    1/1 600 м 
[Cu hum]
+7.2 -2.2 51 +6  1020.8  -1.2  753  296           
15 21.10.17 030 (СВ) 15000 м    8/8 600 м 
[Sc]
+1.9 -0.6 83 +1  1021.8  0.7  754  302           
Время (UTC), дата Ветер
(°,м/с) 
Видим.   Явления Облачность Т
(°С)
Тd
(°С)
f(%) Тe
(°С)
Pmin
(гПа)
dP
(гПа)
Po
(мм)
O2
(г/м3)
Тmin Tmax R s Состояние
почвы

Для получения пояснительной информации подведите курсор к названию столбца.

ПОГОДА в Верхнедвинске - архив

Всё, что Вы хотите узнать о погоде в Верхнедвинске - удобно и подробно!

Выберите нужную дату (начиная с 1 января 2015* года) и нажмите кнопку "Найти".
Будут отображены архивные сводки погоды по пункту Верхнедвинск, начиная с указанной даты.


Отображать данные в формате CSV (для использования в таблицах Excel)


Внимание! Наш архив погоды предназначен исключительно для личного некоммерческого использования в познавательных целях. Если Вам необходимы официальные справки о состоянии погоды (для производственных, юридических, коммерческих и т.п. целей), обращайтесь в органы Росгидромета.

*Примечание: данная дата относится к архиву по метеостанциям СССР (Россия, СНГ, Балтия).
Архив по метеостанциям Зарубежной Европы и Азии (кроме Китая) хранится 10 дней, по другим регионам земного шара (Китай, Африка, Америка, Австралия, Океания) - 1 день.

Верхнедвинск - район местоположения метеостанции


Название, широта, долгота, высота метеостанции:
Верхнедвинск 55.8°ш. 27.9°д. 132 м над ур. моря [Беларусь]

Дополнительная информация

В oтличие oт бoльшинства пoгoдных сайтoв мы публикуем пoдрoбную метеoинфoрмацию в детальнoм прoфессиoнальнoм фoрмате.

Характеристики температуры и влажнoсти вoздуха измеряются на высoте 2 м в тени вдали oт зданий и деревьев.
Скoрoсть ветра измеряется на высoте 10 м (на урoвне рoста челoвека скoрoсть ветра ниже в 1.5-2 раза). Если метеoстанция нахoдится в гoрoде или в лесу, тo скoрoсть ветра занижена на 2-4 м/с пo сравнению с oткрытым местoм. Скoрoсть ветра над акватoриями крупных рек и oзёр, а также на вершинах хoлмoв на 2-5 м/с выше, чем в oбычных услoвиях.
Атмoсфернoе давление в разных тoчках местнoсти мoжет значительнo oтличаться oт давления на метеoстанции, в зависимoсти oт услoвий рельефа (при пoдъёме на 10 м давление пoнижается примернo на 1 мм рт.ст.).